Tracking 23752 objects as of 24-Oct-2021
HD Live streaming from Space Station
objects crossing your sky now

SL-14 DEB

Track SL-14 DEB now!
10-day predictions


NORAD ID: 45297
Int'l Code: 1991-056AK
Perigee: 1,195.8 km
Apogee: 1,322.7 km
Inclination: 82.6 °
Period: 110.6 minutes
Semi major axis: 7630 km
RCS: Unknown
Launch date: August 15, 1991
Source: Commonwealth of Independent States (former USSR) (CIS)
Launch site: PLESETSK MISSILE AND SPACE COMPLEX (PKMTR)

Note: This is SATELLITE DEBRIS
aabbcc
Your satellite tracking list
Your tracking list is empty




NASA's NSSDC Master Catalog

Two Line Element Set (TLE):
1 45297U 91056AK  21296.65349455  .00002726  00000-0  85583-2 0  9997
2 45297  82.6064 273.0307 0083157 234.3284 125.0069 13.02561739 80364
Source of the keplerian elements: AFSPC